Lapse_Rate
6.0 6.0 6.0 6.0 5.9 5.9 5.9 6.1 6.1 6.2 6.2 6.1 6.1 6.1 6.1 6.1 6.2 6.3 6.2 6.2 6.2 6.2
5.6 5.5 5.7 5.8 5.8 5.9 5.8 5.9 6.2 6.3 6.4 6.5 6.4 6.4 6.5 6.4 6.4 6.5 6.5 6.5 6.4 6.2
5.6 5.7 5.8 5.9 6.0 5.9 6.0 6.1 6.4 6.5 6.6 6.7 6.6 6.6 6.6 6.7 6.7 6.7 6.7 6.6 6.5 6.4
5.9 5.7 5.5 5.6 6.0 6.5 6.6 6.7 6.9 7.0 7.0 6.9 6.9 6.7 6.6 6.5 6.5 6.7 6.7 6.8 6.8 6.6
5.6 5.5 5.6 6.2 6.9 7.2 7.5 7.4 7.0 7.0 7.2 7.3 7.1 6.9 6.7 6.6 6.5 6.5 6.5 6.4 6.4 6.3
5.4 5.2 6.0 6.2 6.4 6.7 7.2 7.3 7.1 6.8 7.0 7.1 7.0 6.9 6.9 6.8 6.6 6.5 6.5 6.5 6.4 6.3
4.8 5.2 6.4 6.9 6.4 6.6 6.7 7.0 7.1 6.6 6.5 6.9 7.1 7.1 6.9 6.9 6.8 6.8 6.7 6.6 6.4 6.5
5.1 5.7 6.6 7.2 7.2 7.1 6.8 6.7 7.0 7.2 7.1 7.3 7.2 7.2 7.1 7.0 6.9 6.8 6.7 6.5 6.3 6.1
5.5 5.8 6.2 6.9 7.3 7.1 7.4 7.1 7.0 7.3 7.2 7.1 6.9 6.6 6.6 6.4 6.2 6.5 6.4 6.4 6.1 5.5
5.6 5.8 5.9 6.3 6.8 7.0 7.1 7.1 7.1 7.1 6.8 6.9 6.9 6.6 6.4 6.5 6.1 6.3 6.4 6.6 6.2 5.9
5.2 5.2 5.5 5.6 6.0 5.8 6.3 6.5 6.3 6.6 6.7 6.5 6.3 6.2 6.1 6.0 5.9 6.2 6.1 5.8 5.8 5.9
5.0 4.8 4.9 5.1 5.2 6.1 6.3 6.1 6.1 6.1 6.2 5.9 6.1 6.0 5.8 5.7 5.5 5.5 5.5 5.6 5.4 4.9
4.9 4.8 4.7 4.7 4.9 5.1 5.5 5.4 5.2 5.2 5.2 5.2 5.4 5.3 5.3 5.3 5.4 5.3 5.4 5.6 5.3 5.5
5.3 5.1 5.0 4.9 5.0 5.0 5.0 5.1 5.2 5.4 5.3 5.1 5.1 5.3 5.4 5.3 5.4 5.4 5.6 5.7 5.8 5.6
Wind_Speed
6 6 8 12 12 11 11 10 13 12 12 14 14 13 13 10 11 13 11 14 11 7
6 6 7 10 10 9 11 9 12 12 11 13 13 12 12 9 11 11 11 12 10 6
6 7 7 7 8 9 9 10 10 12 12 10 10 9 10 9 9 10 8 6 7 6
7 6 5 5 7 6 7 8 9 9 8 9 10 9 9 8 8 8 9 9 11 10
8 8 7 5 4 4 7 3 3 4 4 6 8 10 9 9 8 11 11 10 11 12
9 9 8 7 6 5 3 3 1 2 3 4 5 7 8 9 10 11 11 11 11 10
9 9 8 7 7 6 5 5 7 6 4 5 6 9 11 11 12 12 11 11 10 10
8 8 8 8 8 8 8 9 9 9 8 9 8 7 11 11 12 12 11 9 8 8
7 8 9 8 9 9 9 9 10 8 8 10 7 17 19 12 10 10 11 9 8 6
7 8 9 9 10 9 8 8 8 9 8 9 10 18 19 18 9 9 7 7 6 5
8 8 9 10 10 9 9 9 8 9 9 9 9 20 19 20 9 7 8 7 5 4
6 7 8 8 8 7 9 9 8 8 10 9 9 17 17 13 7 8 6 5 4 4
6 7 8 8 9 8 8 8 7 8 7 12 9 12 11 8 5 6 4 4 3 0
7 8 8 8 7 8 8 7 7 6 5 6 7 7 7 6 3 3 2 2 1 1
Wind_Direction
277 260 256 252 254 255 256 241 240 232 222 221 223 223 219 215 212 206 211 209 209 194
303 286 274 274 268 257 254 252 251 240 225 228 222 218 210 208 208 207 212 215 202 178
320 320 315 303 286 275 271 262 244 244 235 221 215 207 208 210 208 198 200 182 146 103
337 337 330 325 311 292 290 275 265 249 234 218 206 200 193 194 182 173 155 140 129 120
331 332 328 325 317 309 290 241 252 251 220 217 203 192 186 159 151 140 137 128 119 123
350 344 344 351 353 347 0 331 97 154 224 187 177 168 157 133 130 127 127 127 126 129
4 4 3 13 30 14 42 56 45 60 71 91 114 118 118 113 111 108 111 106 117 126
14 16 20 23 39 52 52 67 77 77 84 90 92 105 109 109 109 109 104 102 100 103
36 37 35 37 45 57 66 75 80 87 94 95 101 118 116 110 109 112 115 109 101 102
46 55 53 50 56 51 54 63 73 81 82 93 107 109 105 99 88 91 92 104 105 105
56 63 67 66 62 59 61 58 58 65 76 73 87 100 99 90 80 92 85 84 112 131
52 66 68 67 62 55 67 63 62 58 62 68 74 88 94 89 87 90 106 113 130 134
57 68 69 71 73 69 74 74 72 68 68 80 80 79 92 105 109 116 118 131 133 94
67 72 74 75 74 80 78 80 76 74 89 107 112 117 98 85 101 116 140 162 190 178